Regional Weather Roundup
Issued by NWS Green Bay, WI

Home | Current Version | Previous Version | Text Only | Print | Product List | Glossary On
Versions: 1 2 3 4 5 6 7 8 9 10 11 12 13 14 15 16 17 18 19 20 21 22 23 24 25 26 27 28 29 30 31 32 33 34 35 36 37 38 39 40 41 42 43 44 45 46 47 48 49 50
559
ASUS43 KGRB 231200
RWRGRB

NORTH-CENTRAL AND NORTHEAST WISCONSIN REGIONAL WEATHER ROUNDUP
NATIONAL WEATHER SERVICE GREEN BAY WI
700 AM CDT SUN APR 23 2017

WIZ005-009-010>012-018-019-231300-
NORTH CENTRAL WISCONSIN

CITY           SKY/WX    TMP DP  RH WIND       PRES   REMARKS
IRONWOOD       LGT SNOW  34  33  96 NE6       30.16R FOG
MANITOWISH WTR CLOUDY    38  38 100 N6        30.11R
ARBOR VITAE    NOT AVBL
EAGLE RIVER    NOT AVBL
LAND O LAKES   CLOUDY    37  35  94 NE8       30.12R
RHINELANDER    CLOUDY    44  39  82 NE8       30.08R
PHILLIPS       CLOUDY    42  40  91 N9        30.08R
ANTIGO         NOT AVBL
TOMAHAWK       NOT AVBL
MERRILL        CLOUDY    39  35  84 CALM      30.07R
$$

WIZ013-073-231300-
NORTHEAST WISCONSIN

CITY           SKY/WX    TMP DP  RH WIND       PRES   REMARKS
IRON MOUNTAIN  CLOUDY    39  33  79 NE13      30.09R
MARINETTE      MOSUNNY   43  39  86 E15       30.09R FOG
$$

WIZ017-030-035>037-045-231300-
CENTRAL WISCONSIN

CITY           SKY/WX    TMP DP  RH WIND       PRES   REMARKS
MEDFORD        NOT AVBL
WAUSAU         CLOUDY    45  35  68 CALM      30.05R
MOSINEE        MOCLDY    46  36  66 NW7G18    30.07R
MARSHFIELD     CLOUDY    44  33  65 SW7       30.05R
WISC RAPIDS    PTCLDY    45  34  65 SW6       30.08R
STEVENS POINT  NOT AVBL
WAUPACA        CLOUDY    48  31  51 SW3       30.07S
SHAWANO        MOSUNNY   47  32  56 CALM      30.06R
CLINTONVILLE   CLOUDY    45  32  61 SW3       30.05S
WAUTOMA        CLEAR     36  34  92 CALM      30.09S
$$

WIZ038-039-048-051-231300-
FOX VALLEY

CITY           SKY/WX    TMP DP  RH WIND       PRES   REMARKS
NWS GREEN BAY  CLOUDY    46  36  68 SW3       30.06S
APPLETON       PTSUNNY   46  28  49 SW9       30.06S
OSHKOSH        SUNNY     49  31  49 SW6       30.08S
FOND DU LAC    SUNNY     47  31  53 SW8       30.10R
$$

WIZ022-050-052-231300-
EAST CENTRAL WISCONSIN

CITY           SKY/WX    TMP DP  RH WIND       PRES   REMARKS
EPHRAIM        NOT AVBL
WASHINGTON ISL PTSUNNY   39  36  87 N12       30.10R
STURGEON BAY   MOSUNNY   50  35  56 NW8       30.08R
MANITOWOC      NOT AVBL
SHEBOYGAN      MOSUNNY   42  33  70 SW7       30.10R
$$

LMZ563-521-522-541>543-231300-
LAKESHORE

STATION/POSITION TIME  TEMP    WIND        PRES    VSBY  WAVE
                       AIR SEA DIR/SP/G                  HT/PER
                 (UTC) (F)     (DEG/KT/KT) (MB)    (MI)  (FT/S)
SHEBOYGAN LKSHOR 1100   48     250/ 10/ 11 1018.8R
KEWAUNEE LKSHORE 1130   48     270/  6/  9 1017.3S
NORTHPORT PIER   1140   42     360/ 10/ 13 1019.0R
N MID LAKE BUOY  1050   41 37  360/ 10/ 12 1018.8R         2/ 4
CHAMBERS ISLAND  1140   41      30/ 11/ 15 1018.6R
MENOMINEE LKSHOR 1130   45      50/ 13/ 15 1017.1R
$$




USA.gov is the U.S. government's official web portal to all federal, state and local government web resources and services.